Regional Weather Roundup
Issued by NWS San Angelo, TX

Home | Current Version | Previous Version | Text Only | Print | Product List | Glossary On
Versions: 1 2 3 4 5 6 7 8 9 10 11 12 13 14 15 16 17 18 19 20 21 22 23 24 25 26 27 28 29 30 31 32 33 34 35 36 37 38 39 40 41 42 43 44 45 46 47 48 49 50
000
ASUS44 KSJT 291858
RWRSJT
WEST CENTRAL TEXAS REGIONAL WEATHER ROUNDUP
NATIONAL WEATHER SERVICE SAN ANGELO TX
200 PM CDT FRI JUL 29 2016

NOTE: "FAIR" INDICATES FEW OR NO CLOUDS BELOW 12,000 FEET WITH NO
SIGNIFICANT WEATHER AND/OR OBSTRUCTIONS TO VISIBILITY.

TXZ049-054-064>066-071>073-076>078-098-099-113-114-127-128-139-140-
154-155-168>170-292000
...LOCATIONS ACROSS WEST CENTRAL TEXAS...

CITY           SKY/WX    TMP DP  RH WIND       PRES   REMARKS
SAN ANGELO     MOSUNNY   93  65  39 S9        30.05F
ABILENE        MOSUNNY   93  66  40 CALM      30.04F
DYESS AFB      NOT AVBL
JUNCTION       MOSUNNY   92  64  39 SE5       30.05F
SWEETWATER     NOT AVBL
BROWNWOOD      NOT AVBL
COLEMAN        NOT AVBL
SONORA         NOT AVBL
OZONA          NOT AVBL
BRADY          NOT AVBL
$$

TEXAS PANHANDLE/OKLAHOMA PANHANDLE

CITY           SKY/WX    TMP DP  RH WIND       PRES   REMARKS
AMARILLO       MOSUNNY   80  62  54 S24G33    30.13F
BORGER         CLOUDY    76  65  68 SE8       30.11F
CANADIAN       NOT AVBL
DALHART        SUNNY     89  58  34 SE20G26   30.12F
DUMAS          NOT AVBL
GUYMON         NOT AVBL
HEREFORD       NOT AVBL
PAMPA          NOT AVBL
PERRYTON       NOT AVBL
$$

SOUTHERN PANHANDLE/SOUTH PLAINS/ROLLING PLAINS

CITY           SKY/WX    TMP DP  RH WIND       PRES   REMARKS
LUBBOCK        PTSUNNY   89  61  38 SE10      30.11F
SNYDER         NOT AVBL
CHILDRESS      SUNNY     90  58  33 E10       30.06R
SEMINOLE       NOT AVBL
$$

PERMIAN BASIN

CITY           SKY/WX    TMP DP  RH WIND       PRES   REMARKS
MIDLAND        SUNNY     90  63  40 S16G23    30.08F
ODESSA         SUNNY     90  62  39 SE14G24   30.09F
WINK           SUNNY     91  62  37 E16       30.05F
$$

FAR WEST/SOUTHWEST MOUNTAINS/TRANS PECOS

CITY           SKY/WX    TMP DP  RH WIND       PRES   REMARKS
ALPINE         NOT AVBL
DRYDEN           N/A     90  68  48 E16       30.03F
EL PASO        MOSUNNY   93  53  25 E12G25    30.07F
FORT STOCKTON  MOSUNNY   91  62  37 SE10G23   30.07F
GUADALUPE PASS SUNNY     84  52  33 E25G35    30.22F
MARFA          NOT AVBL
PECOS          NOT AVBL
$$

DALLAS/FORT WORTH METROPLEX

CITY           SKY/WX    TMP DP  RH WIND       PRES   REMARKS
DFW AIRPORT    PTSUNNY   93  69  45 N7        29.99F
FTW MEACHAM    MOSUNNY   93  70  46 MISG      30.00F
DAL-EXECUTIVE  PTSUNNY   90  70  51 CALM      30.00F
GRAND PRAIRIE  SUNNY     91  70  49 SW5       30.02F
ADDISON        PTSUNNY   90  70  51 NW5       30.01F
MESQUITE       MOCLDY    88  70  55 S7        30.00F
LANCASTER      NOT AVBL
$$

NORTH CENTRAL TEXAS

CITY           SKY/WX    TMP DP  RH WIND       PRES   REMARKS
SHRMAN/DENISON NOT AVBL
GAINESVILLE    NOT AVBL
BRIDGEPORT     NOT AVBL
DENTON         SUNNY     90  71  53 VRB5      30.00F
WAXAHACHIE     NOT AVBL
GRANBURY       NOT AVBL
$$

WESTERN NORTH TEXAS

CITY           SKY/WX    TMP DP  RH WIND       PRES   REMARKS
WICHITA FALLS  MOSUNNY   93  61  34 SE8G16    29.97F
VERNON         NOT AVBL
BRECKENRIDGE   NOT AVBL
COMANCHE       NOT AVBL
$$

CENTRAL AND SOUTH CENTRAL TEXAS

CITY           SKY/WX    TMP DP  RH WIND       PRES   REMARKS
AUSTIN/BERGSTM PTSUNNY   92  73  53 S8        30.03F
WACO           HVY RAIN  87  70  56 E7        30.02F
HILLSBORO      NOT AVBL
TEMPLE         CLOUDY    90  71  53 S9        30.04F
KILLEEN-GRAY   NOT AVBL
FORT HOOD      NOT AVBL
GEORGETOWN     MOSUNNY   91  68  46 S6        30.03F
LAGO VISTA     NOT AVBL
SAN MARCOS     NOT AVBL
NEW BRAUNFELS  CLOUDY    90  71  53 W5        30.02F
RANDOLPH AFB   NOT AVBL
SAN ANTONIO    CLOUDY    89  71  55 CALM      30.04F
STINSON        CLOUDY    89  72  56 SE6       30.01F
PLEASANTON     NOT AVBL
LA GRANGE      NOT AVBL
GIDDINGS       NOT AVBL
$$

EAST TEXAS

CITY           SKY/WX    TMP DP  RH WIND       PRES   REMARKS
PARIS          NOT AVBL
CLARKSVILLE    NOT AVBL
TYLER          PTSUNNY   86  69  56 SW9       30.03F
LONGVIEW       MOSUNNY   90  73  57 W14       30.00F
PALESTINE      NOT AVBL
NACOGDOCHES    NOT AVBL
$$

TEXAS HILL COUNTRY AND EDWARDS PLATEAU

CITY           SKY/WX    TMP DP  RH WIND       PRES   REMARKS
LLANO          NOT AVBL
HORSESHOE BAY  NOT AVBL
KERRVILLE      NOT AVBL
FREDERICKSBRG  NOT AVBL
ROCKSPRINGS    NOT AVBL
HONDO          CLOUDY    87  72  60 S7        30.06F
UVALDE         NOT AVBL
DEL RIO        CLOUDY    84  72  67 SE8       30.02S
$$

SOUTHEAST TEXAS

CITY           SKY/WX    TMP DP  RH WIND       PRES   REMARKS
COLLEGE STN    PTSUNNY   91  73  55 SW3       30.02F
CALDWELL       NOT AVBL
CROCKETT       NOT AVBL
BRENHAM        NOT AVBL
HUNTSVILLE     PTSUNNY   83  70  64 N7G17     30.05S
CONROE         MOSUNNY   92  73  53 VRB7      30.03F
HOUSTON BUSH   LGT RAIN  94  72  48 NW3       30.01F
HOUSTON HOBBY  MOSUNNY   94  72  48 SW5       30.00F
PERLAND        MOSUNNY   95  71  45 S3        30.02F
WHARTON        NOT AVBL
$$

THE UPPER TEXAS COAST

CITY           SKY/WX    TMP DP  RH WIND       PRES   REMARKS
ORANGE         NOT AVBL
PORT ARTHUR    LGT RAIN  77  74  90 E5        30.03F
GALVESTON      SUNNY     89  78  70 S8        30.03F
ANGLETON       MOSUNNY   93  76  57 VRB3      30.01F
BAY CITY       NOT AVBL
$$

TEXAS COASTAL BEND, RIO GRANDE PLAINS DEEP SOUTH TEXAS

CITY           SKY/WX    TMP DP  RH WIND       PRES   REMARKS
VICTORIA       PTSUNNY   92  72  51 SE7       30.00F
BEEVILLE       NOT AVBL
ROCKPORT       SUNNY     92  75  57 SE14      29.99F
PORT ARANSAS   NOT AVBL
PORT LAVACA    NOT AVBL
CORPUS CHRISTI PTSUNNY   94  74  52 SE14G21   29.97F
KINGSVILLE NAS NOT AVBL
COTULLA        MOSUNNY   92  70  48 S6        30.00F
LAREDO         NOT AVBL
BROWNSVILLE    CLOUDY    95  75  52 SE17      29.97F
PORT ISABEL    SUNNY     93  77  59 E20G25    29.96F
HEBBRONVILLE   NOT AVBL
MCALLEN        NOT AVBL
WESLACO        NOT AVBL
FALFURRIAS     NOT AVBL
EDINBURG       NOT AVBL
$$




USA.gov is the U.S. government's official web portal to all federal, state and local government web resources and services.